| time (UTC) | temp C | wind direction | speed KPH | gust KPH | rain 1hr cm | rain 24hr cm | rain mn cm | humidity % | barometer mb |
| 20260905100407 | 22 | 0.0 | 0.0 | 0.00 | 0.00 | 0.00 | 40 | 969.2 | |
| 20260905095407 | 22 | 0.0 | 0.0 | 0.00 | 0.00 | 0.00 | 40 | 969.4 | |
| 20260905094407 | 22 | 0.0 | 0.0 | 0.00 | 0.00 | 0.00 | 41 | 969.3 | |
| 20260905093407 | 22 | 0.0 | 0.0 | 0.00 | 0.00 | 0.00 | 42 | 969.4 | |
| 20260905092407 | 22 | 0.0 | 0.0 | 0.00 | 0.00 | 0.00 | 42 | 969.4 | |
| 20260905091407 | 22 | 0.0 | 0.0 | 0.00 | 0.00 | 0.00 | 42 | 969.4 | |
| 20260905090407 | 24 | 0.0 | 0.0 | 0.00 | 0.00 | 0.00 | 41 | 969.4 | |
| 20260905085407 | 23 | 0.0 | 0.0 | 0.00 | 0.00 | 0.00 | 41 | 969.3 | |
| 20260905084407 | 24 | 0.0 | 0.0 | 0.00 | 0.00 | 0.00 | 41 | 969.2 | |
| 20260905083407 | 24 | 0.0 | 0.0 | 0.00 | 0.00 | 0.00 | 42 | 969.2 | |
| 20260905082408 | 23 | 0.0 | 0.0 | 0.00 | 0.00 | 0.00 | 42 | 969.2 | |
| 20260905080300 | 23 | 0.0 | 0.0 | 0.00 | 0.00 | 0.00 | 41 | 969.0 | |
| 20260905075300 | 23 | 0.0 | 0.0 | 0.00 | 0.00 | 0.00 | 42 | 968.9 | |
| 20260905074259 | 24 | 0.0 | 0.0 | 0.00 | 0.00 | 0.00 | 42 | 968.8 | |
| 20260905073300 | 25 | 0.0 | 0.0 | 0.00 | 0.00 | 0.00 | 41 | 968.9 | |
| 20260905072259 | 23 | 0.0 | 0.0 | 0.00 | 0.00 | 0.00 | 44 | 968.9 | |
| 20260905070234 | 24 | 0.0 | 0.0 | 0.00 | 0.00 | 0.00 | 46 | 968.7 | |
| 20260905065234 | 24 | 0.0 | 0.0 | 0.00 | 0.00 | 0.00 | 45 | 968.6 | |
| 20260905063333 | 24 | 0.0 | 0.0 | 0.00 | 0.00 | 0.00 | 45 | 968.5 | |
| 20260905062228 | 24 | 0.0 | 0.0 | 0.00 | 0.00 | 0.00 | 44 | 968.4 | |
| 20260905061228 | 24 | 0.0 | 0.0 | 0.00 | 0.00 | 0.00 | 46 | 968.3 | |
| 20260905060228 | 23 | 0.0 | 0.0 | 0.00 | 0.00 | 0.00 | 45 | 968.2 | |
| 20260905055228 | 23 | 0.0 | 0.0 | 0.00 | 0.00 | 0.00 | 45 | 968.1 | |
| 20260905054228 | 23 | 0.0 | 0.0 | 0.00 | 0.00 | 0.00 | 47 | 967.8 | |
| 20260905053228 | 23 | 0.0 | 0.0 | 0.00 | 0.00 | 0.00 | 47 | 967.7 | |
| 20260905052228 | 23 | 0.0 | 0.0 | 0.00 | 0.00 | 0.00 | 47 | 967.6 | |
| 20260905051228 | 23 | 0.0 | 0.0 | 0.00 | 0.00 | 0.00 | 49 | 967.4 | |
| 20260905050228 | 23 | 0.0 | 0.0 | 0.00 | 0.00 | 0.00 | 48 | 967.3 | |
| 20260905045228 | 23 | 0.0 | 0.0 | 0.00 | 0.00 | 0.00 | 47 | 967.2 | |
| 20260905044228 | 23 | 0.0 | 0.0 | 0.00 | 0.00 | 0.00 | 48 | 967.2 | |
| 20260905043228 | 24 | 0.0 | 0.0 | 0.00 | 0.00 | 0.00 | 48 | 967.2 | |
| 20260905042228 | 23 | 0.0 | 0.0 | 0.00 | 0.00 | 0.00 | 48 | 966.9 | |
| 20260905041228 | 23 | 0.0 | 0.0 | 0.00 | 0.00 | 0.00 | 48 | 966.9 | |
| 20260905040228 | 23 | 0.0 | 0.0 | 0.00 | 0.00 | 0.00 | 48 | 966.8 | |
| 20260905035227 | 24 | 0.0 | 0.0 | 0.00 | 0.00 | 0.00 | 48 | 966.6 | |
| 20260905034228 | 24 | 0.0 | 0.0 | 0.00 | 0.00 | 0.00 | 47 | 966.6 | |
| 20260905033228 | 24 | 0.0 | 0.0 | 0.00 | 0.00 | 0.00 | 48 | 966.6 | |
| 20260905032228 | 24 | 0.0 | 0.0 | 0.00 | 0.00 | 0.00 | 48 | 966.4 | |
| 20260905031228 | 24 | 0.0 | 0.0 | 0.00 | 0.00 | 0.00 | 48 | 966.6 | |
| 20260905030228 | 24 | 0.0 | 0.0 | 0.00 | 0.00 | 0.00 | 48 | 966.4 | |
| 20260905025228 | 24 | 0.0 | 0.0 | 0.00 | 0.00 | 0.00 | 48 | 966.1 | |
| 20260905024228 | 24 | 0.0 | 0.0 | 0.00 | 0.00 | 0.00 | 47 | 965.8 | |
| 20260905023227 | 24 | 0.0 | 0.0 | 0.00 | 0.00 | 0.00 | 47 | 965.7 | |
| 20260905022227 | 24 | 0.0 | 0.0 | 0.00 | 0.00 | 0.00 | 48 | 965.4 | |
| 20260905021227 | 24 | 0.0 | 0.0 | 0.00 | 0.00 | 0.00 | 49 | 965.5 | |
| 20260905020228 | 24 | 0.0 | 0.0 | 0.00 | 0.00 | 0.00 | 49 | 964.9 | |
| 20260905015228 | 24 | 0.0 | 0.0 | 0.00 | 0.00 | 0.00 | 48 | 965.2 | |
| 20260905014228 | 24 | 0.0 | 0.0 | 0.00 | 0.00 | 0.00 | 49 | 964.8 | |
| 20260905013228 | 24 | 0.0 | 0.0 | 0.00 | 0.00 | 0.00 | 49 | 965.2 | |
| 20260905012228 | 24 | 0.0 | 0.0 | 0.00 | 0.00 | 0.00 | 49 | 965.4 | |
| 20260905011228 | 24 | 0.0 | 0.0 | 0.00 | 0.00 | 0.00 | 49 | 965.2 | |
| 20260905010228 | 24 | 0.0 | 0.0 | 0.00 | 0.00 | 0.00 | 49 | 965.2 | |
| 20260905005228 | 24 | 0.0 | 0.0 | 0.00 | 0.00 | 0.00 | 50 | 965.1 | |
| 20260905004228 | 24 | 0.0 | 0.0 | 0.00 | 0.00 | 0.00 | 50 | 965.3 | |
| 20260905003228 | 24 | 0.0 | 0.0 | 0.00 | 0.00 | 0.00 | 50 | 965.6 | |
| 20260905002228 | 25 | 0.0 | 0.0 | 0.00 | 0.00 | 0.00 | 49 | 965.4 | |
| 20260905001228 | 24 | 0.0 | 0.0 | 0.00 | 0.00 | 0.00 | 50 | 965.6 | |
| 20260905000228 | 24 | 0.0 | 0.0 | 0.00 | 0.00 | 0.00 | 49 | 965.2 | |
| 20260904235228 | 24 | 0.0 | 0.0 | 0.00 | 0.00 | 0.00 | 50 | 965.2 | |
| 20260904234228 | 25 | 0.0 | 0.0 | 0.00 | 0.00 | 0.00 | 50 | 964.9 | |
| 20260904233228 | 24 | 0.0 | 0.0 | 0.00 | 0.00 | 0.00 | 50 | 964.6 | |
| 20260904232228 | 24 | 0.0 | 0.0 | 0.00 | 0.00 | 0.00 | 51 | 964.5 | |
| 20260904231228 | 24 | 0.0 | 0.0 | 0.00 | 0.00 | 0.00 | 50 | 964.5 | |
| 20260904230228 | 24 | 0.0 | 0.0 | 0.00 | 0.00 | 0.00 | 50 | 964.6 | |
| 20260904225228 | 24 | 0.0 | 0.0 | 0.00 | 0.00 | 0.00 | 50 | 964.2 | |
| 20260904224228 | 24 | 0.0 | 0.0 | 0.00 | 0.00 | 0.00 | 49 | 964.2 | |
| 20260904223228 | 24 | 0.0 | 0.0 | 0.00 | 0.00 | 0.00 | 49 | 964.3 | |
| 20260904222228 | 24 | 0.0 | 0.0 | 0.00 | 0.00 | 0.00 | 49 | 964.4 | |
| 20260904221228 | 25 | 0.0 | 0.0 | 0.00 | 0.00 | 0.00 | 49 | 964.1 | |
| 20260904220228 | 25 | 0.0 | 0.0 | 0.00 | 0.00 | 0.00 | 48 | 964.2 | |
| 20260904215228 | 25 | 0.0 | 0.0 | 0.00 | 0.00 | 0.00 | 49 | 964.2 | |
| 20260904214228 | 25 | 0.0 | 0.0 | 0.00 | 0.00 | 0.00 | 48 | 964.1 | |
| 20260904213228 | 24 | 0.0 | 0.0 | 0.00 | 0.00 | 0.00 | 49 | 964.1 | |
| 20260904212228 | 25 | 0.0 | 0.0 | 0.00 | 0.00 | 0.00 | 48 | 964.0 | |
| 20260904211228 | 24 | 0.0 | 0.0 | 0.00 | 0.00 | 0.00 | 49 | 964.2 | |
| 20260904210228 | 24 | 0.0 | 0.0 | 0.00 | 0.00 | 0.00 | 50 | 963.9 | |
| 20260904205228 | 25 | 0.0 | 0.0 | 0.00 | 0.00 | 0.00 | 48 | 964.1 | |
| 20260904204228 | 25 | 0.0 | 0.0 | 0.00 | 0.00 | 0.00 | 49 | 964.2 | |
| 20260904203228 | 25 | 0.0 | 0.0 | 0.00 | 0.00 | 0.00 | 49 | 964.3 | |
| 20260904202228 | 24 | 0.0 | 0.0 | 0.00 | 0.00 | 0.00 | 49 | 964.4 | |
| 20260904201228 | 24 | 0.0 | 0.0 | 0.00 | 0.00 | 0.00 | 48 | 964.4 | |
| 20260904200227 | 24 | 0.0 | 0.0 | 0.00 | 0.00 | 0.00 | 49 | 964.3 | |
| 20260904195228 | 24 | 0.0 | 0.0 | 0.00 | 0.00 | 0.00 | 48 | 964.0 | |
| 20260904194228 | 25 | 0.0 | 0.0 | 0.00 | 0.00 | 0.00 | 46 | 963.8 | |
| 20260904192617 | 25 | 0.0 | 0.0 | 0.00 | 0.00 | 0.00 | 47 | 964.0 | |
| 20260904190814 | 25 | 0.0 | 0.0 | 0.00 | 0.00 | 0.00 | 51 | 963.4 | |
| 20260904185814 | 25 | 0.0 | 0.0 | 0.00 | 0.00 | 0.00 | 50 | 963.1 | |
| 20260904184814 | 25 | 0.0 | 0.0 | 0.00 | 0.00 | 0.00 | 51 | 963.2 | |
| 20260904183642 | 24 | 0.0 | 0.0 | 0.00 | 0.00 | 0.00 | 52 | 962.9 | |
| 20260904182642 | 25 | 0.0 | 0.0 | 0.00 | 0.00 | 0.00 | 52 | 961.4 | |
| 20260904181642 | 25 | 0.0 | 0.0 | 0.00 | 0.00 | 0.00 | 50 | 961.3 | |
| 20260904180642 | 25 | 0.0 | 0.0 | 0.00 | 0.00 | 0.00 | 51 | 961.3 | |
| 20260904175642 | 25 | 0.0 | 0.0 | 0.00 | 0.00 | 0.00 | 50 | 960.9 | |
| 20260904174642 | 25 | 0.0 | 0.0 | 0.00 | 0.00 | 0.00 | 50 | 960.7 | |
| 20260904173643 | 23 | 0.0 | 0.0 | 0.00 | 0.00 | 0.00 | 52 | 960.6 | |
| 20260904172642 | 23 | 0.0 | 0.0 | 0.00 | 0.00 | 0.00 | 52 | 961.0 | |
| 20260904171642 | 23 | 0.0 | 0.0 | 0.00 | 0.00 | 0.00 | 53 | 961.3 | |
| 20260904170642 | 23 | 0.0 | 0.0 | 0.00 | 0.00 | 0.00 | 53 | 961.4 | |
| 20260904165642 | 24 | 0.0 | 0.0 | 0.00 | 0.00 | 0.00 | 52 | 961.4 | |
| 20260904164642 | 25 | 0.0 | 0.0 | 0.00 | 0.00 | 0.00 | 50 | 961.4 | |
| 20260904152539 | 25 | 0.0 | 0.0 | 0.00 | 0.00 | 0.00 | 50 | 961.9 | |
| 20260904151539 | 25 | 0.0 | 0.0 | 0.00 | 0.00 | 0.00 | 50 | 962.0 | |
| 20260904150539 | 25 | 0.0 | 0.0 | 0.00 | 0.00 | 0.00 | 51 | 961.8 | |
| 20260904145539 | 25 | 0.0 | 0.0 | 0.00 | 0.00 | 0.00 | 51 | 961.9 | |
| 20260904144539 | 24 | 0.0 | 0.0 | 0.00 | 0.00 | 0.00 | 52 | 962.0 | |
| 20260904143539 | 23 | 0.0 | 0.0 | 0.00 | 0.00 | 0.00 | 53 | 962.4 | |
| 20260904142539 | 23 | 0.0 | 0.0 | 0.00 | 0.00 | 0.00 | 53 | 962.6 | |
| 20260904141539 | 23 | 0.0 | 0.0 | 0.00 | 0.00 | 0.00 | 52 | 962.7 | |
| 20260904140539 | 23 | 0.0 | 0.0 | 0.00 | 0.00 | 0.00 | 52 | 962.9 | |
| 20260904135539 | 24 | 0.0 | 0.0 | 0.00 | 0.00 | 0.00 | 51 | 963.0 | |
| 20260904134539 | 24 | 0.0 | 0.0 | 0.00 | 0.00 | 0.00 | 52 | 963.2 | |
| 20260904133539 | 24 | 0.0 | 0.0 | 0.00 | 0.00 | 0.00 | 51 | 963.4 | |
| 20260904132539 | 24 | 0.0 | 0.0 | 0.00 | 0.00 | 0.00 | 52 | 963.5 | |
| 20260904131539 | 24 | 0.0 | 0.0 | 0.00 | 0.00 | 0.00 | 51 | 963.6 | |
| 20260904130539 | 23 | 0.0 | 0.0 | 0.00 | 0.00 | 0.00 | 51 | 963.6 | |
| 20260904125539 | 23 | 0.0 | 0.0 | 0.00 | 0.00 | 0.00 | 51 | 963.8 | |
| 20260904124539 | 24 | 0.0 | 0.0 | 0.00 | 0.00 | 0.00 | 51 | 963.8 | |
| 20260904123539 | 23 | 0.0 | 0.0 | 0.00 | 0.00 | 0.00 | 51 | 963.9 | |
| 20260904122539 | 23 | 0.0 | 0.0 | 0.00 | 0.00 | 0.00 | 51 | 964.0 | |
| 20260904121539 | 23 | 0.0 | 0.0 | 0.00 | 0.00 | 0.00 | 51 | 964.2 | |
| 20260904120539 | 24 | 0.0 | 0.0 | 0.00 | 0.00 | 0.00 | 49 | 964.3 | |
| 20260904115539 | 25 | 0.0 | 0.0 | 0.00 | 0.00 | 0.00 | 49 | 964.2 | |
| 20260904114539 | 23 | 0.0 | 0.0 | 0.00 | 0.00 | 0.00 | 53 | 964.3 | |
| 20260904113539 | 23 | 0.0 | 0.0 | 0.00 | 0.00 | 0.00 | 53 | 964.7 | |
| 20260904112539 | 23 | 0.0 | 0.0 | 0.00 | 0.00 | 0.00 | 53 | 964.7 | |
| 20260904111539 | 23 | 0.0 | 0.0 | 0.00 | 0.00 | 0.00 | 52 | 964.8 | |
| 20260904110539 | 23 | 0.0 | 0.0 | 0.00 | 0.00 | 0.00 | 50 | 965.0 | |
| 20260904105539 | 23 | 0.0 | 0.0 | 0.00 | 0.00 | 0.00 | 50 | 965.0 | |
| 20260904104539 | 23 | 0.0 | 0.0 | 0.00 | 0.00 | 0.00 | 50 | 965.1 | |
| 20260904103539 | 23 | 0.0 | 0.0 | 0.00 | 0.00 | 0.00 | 51 | 965.2 | |
| 20260904102539 | 23 | 0.0 | 0.0 | 0.00 | 0.00 | 0.00 | 51 | 965.4 | |
| 20260904101539 | 23 | 0.0 | 0.0 | 0.00 | 0.00 | 0.00 | 51 | 965.6 |